Time,TemperatureF,DewpointF,PressureIn,WindDirection,WindDirectionDegrees,WindSpeedMPH,WindSpeedGustMPH,Humidity,HourlyPrecipIn,Conditions,Clouds,dailyrainin,SoftwareType,DateUTC
2015-04-18 00:08:00,43.8,28.0,29.91,NNE,26,4.0,9.0,54,0.00,,,0.00,weatherlink.com 1.10,2015-04-18 06:08:00,
2015-04-18 00:23:00,43.4,28.0,29.91,NNW,342,2.0,10.0,55,0.00,,,0.00,weatherlink.com 1.10,2015-04-18 06:23:00,
2015-04-18 00:38:00,43.3,28.0,29.91,North,360,0.0,8.0,56,0.00,,,0.00,weatherlink.com 1.10,2015-04-18 06:38:00,
2015-04-18 00:53:00,43.1,28.0,29.91,North,360,0.0,8.0,56,0.00,,,0.00,weatherlink.com 1.10,2015-04-18 06:53:00,
2015-04-18 01:08:00,42.9,28.0,29.91,NNW,329,0.0,6.0,57,0.00,,,0.00,weatherlink.com 1.10,2015-04-18 07:08:00,
2015-04-18 01:23:00,42.5,28.0,29.91,NNW,329,0.0,0.0,58,0.00,,,0.00,weatherlink.com 1.10,2015-04-18 07:23:00,
2015-04-18 01:38:00,42.2,29.0,29.90,NW,313,0.0,0.0,59,0.00,,,0.00,weatherlink.com 1.10,2015-04-18 07:38:00,
2015-04-18 01:53:00,41.6,28.0,29.89,NW,313,0.0,0.0,60,0.00,,,0.00,weatherlink.com 1.10,2015-04-18 07:53:00,
2015-04-18 02:09:00,41.2,29.0,29.89,NW,313,0.0,0.0,61,0.00,,,0.00,weatherlink.com 1.10,2015-04-18 08:09:00,
2015-04-18 02:24:00,40.9,28.0,29.88,North,5,0.0,0.0,61,0.00,,,0.00,weatherlink.com 1.10,2015-04-18 08:24:00,
2015-04-18 02:39:00,40.3,28.0,29.88,North,5,0.0,0.0,62,0.00,,,0.00,weatherlink.com 1.10,2015-04-18 08:39:00,
2015-04-18 02:54:00,39.3,28.0,29.87,North,5,0.0,0.0,63,0.00,,,0.00,weatherlink.com 1.10,2015-04-18 08:54:00,
2015-04-18 03:09:00,38.4,27.0,29.87,North,5,0.0,0.0,64,0.00,,,0.00,weatherlink.com 1.10,2015-04-18 09:09:00,
2015-04-18 03:24:00,38.0,27.0,29.87,North,5,0.0,0.0,65,0.00,,,0.00,weatherlink.com 1.10,2015-04-18 09:24:00,
2015-04-18 03:39:00,37.6,27.0,29.87,SSW,201,0.0,0.0,65,0.00,,,0.00,weatherlink.com 1.10,2015-04-18 09:39:00,
2015-04-18 03:54:00,37.1,27.0,29.87,SSW,201,0.0,0.0,66,0.00,,,0.00,weatherlink.com 1.10,2015-04-18 09:54:00,
2015-04-18 04:09:00,36.7,26.0,29.87,SSW,201,0.0,0.0,65,0.00,,,0.00,weatherlink.com 1.10,2015-04-18 10:09:00,
2015-04-18 04:24:00,37.2,26.0,29.87,SSW,201,0.0,0.0,63,0.00,,,0.00,weatherlink.com 1.10,2015-04-18 10:24:00,
2015-04-18 04:39:00,37.8,26.0,29.86,SSW,201,0.0,0.0,62,0.00,,,0.00,weatherlink.com 1.10,2015-04-18 10:39:00,
2015-04-18 04:54:00,37.9,26.0,29.86,SSW,201,0.0,0.0,63,0.00,,,0.00,weatherlink.com 1.10,2015-04-18 10:54:00,
2015-04-18 05:09:00,37.6,25.0,29.86,SSW,194,0.0,0.0,61,0.00,,,0.00,weatherlink.com 1.10,2015-04-18 11:09:00,
2015-04-18 05:24:00,37.7,25.0,29.86,South,190,0.0,0.0,60,0.00,,,0.00,weatherlink.com 1.10,2015-04-18 11:24:00,
2015-04-18 05:39:00,37.7,25.0,29.86,South,190,0.0,0.0,60,0.00,,,0.00,weatherlink.com 1.10,2015-04-18 11:39:00,
2015-04-18 05:54:00,37.7,26.0,29.86,South,190,0.0,0.0,62,0.00,,,0.00,weatherlink.com 1.10,2015-04-18 11:54:00,
2015-04-18 06:09:00,37.8,26.0,29.86,South,190,0.0,0.0,63,0.00,,,0.00,weatherlink.com 1.10,2015-04-18 12:09:00,
2015-04-18 06:24:00,38.1,27.0,29.85,South,190,0.0,0.0,64,0.00,,,0.00,weatherlink.com 1.10,2015-04-18 12:24:00,
2015-04-18 06:39:00,38.2,26.0,29.86,South,190,0.0,0.0,63,0.00,,,0.00,weatherlink.com 1.10,2015-04-18 12:39:00,
2015-04-18 06:54:00,38.4,27.0,29.87,NNW,332,0.0,0.0,64,0.00,,,0.00,weatherlink.com 1.10,2015-04-18 12:54:00,
2015-04-18 07:09:00,39.4,28.0,29.87,NNW,331,0.0,0.0,63,0.00,,,0.00,weatherlink.com 1.10,2015-04-18 13:09:00,
2015-04-18 07:24:00,40.1,28.0,29.87,NW,317,0.0,3.0,62,0.00,,,0.00,weatherlink.com 1.10,2015-04-18 13:24:00,
2015-04-18 07:39:00,40.8,28.0,29.87,North,360,0.0,5.0,61,0.00,,,0.00,weatherlink.com 1.10,2015-04-18 13:39:00,